EW0784 Weather Reports


time (UTC)temp
F
wind
direction
speed
knots
gust
knots
rain 1hr
in
rain 24hr
in
rain mn
in
humidity
%
barometer
mb
20260504044558 56 189 0.0 0.0 0.00 0.00 0.00 44 1002.0
20260504043105 57 187 0.0 0.0 0.00 0.00 0.00 42 1002.3
20260504041553 58 198 0.0 0.0 0.00 0.00 0.00 44 1002.5
20260504040112 57 205 0.0 0.0 0.00 0.00 0.00 44 1002.8
20260504034547 56 203 0.0 0.0 0.00 0.00 0.00 43 1003.2
20260504033045 57 214 0.0 0.0 0.00 0.00 0.00 42 1003.5
20260504031543 57 214 0.0 0.0 0.00 0.00 0.00 41 1003.7
20260504030043 57 214 0.0 0.0 0.00 0.00 0.00 44 1003.9
20260504024541 57 252 0.0 0.0 0.00 0.00 0.00 42 1004.1
20260504023040 58 252 0.0 0.0 0.00 0.00 0.00 40 1004.1
20260504021540 58 253 0.0 0.0 0.00 0.00 0.00 39 1004.1
20260504020040 60 253 0.0 0.0 0.00 0.00 0.00 35 1004.1
20260504014550 61 253 0.0 0.0 0.00 0.00 0.00 35 1004.1
20260504013037 63 253 0.0 0.0 0.00 0.00 0.00 32 1004.2
20260504011538 64 269 0.0 0.0 0.00 0.00 0.00 32 1004.3
20260504010036 65 264 0.0 0.0 0.00 0.00 0.00 29 1004.2
20260504004542 66 239 0.0 0.0 0.00 0.00 0.00 29 1004.3
20260504003032 67 250 0.0 1.7 0.00 0.00 0.00 28 1004.5
20260504001532 67 227 0.0 0.0 0.00 0.00 0.00 27 1004.6
20260504000032 68 265 0.0 8.7 0.00 0.00 0.00 28 1004.5
20260503234534 69 314 0.0 4.3 0.00 0.00 0.00 24 1004.5
20260503233030 70 233 0.0 5.2 0.00 0.00 0.00 24 1004.5
20260503231529 70 252 0.0 7.0 0.00 0.00 0.00 23 1004.6
20260503230026 71 266 0.0 7.8 0.00 0.00 0.00 22 1004.8
20260503224525 70 313 0.0 3.5 0.00 0.00 0.00 24 1004.9
20260503223023 70 319 0.0 0.0 0.00 0.00 0.00 23 1004.9
20260503221521 70 302 0.0 2.6 0.00 0.00 0.00 23 1005.0
20260503220020 70 274 0.0 8.7 0.00 0.00 0.00 23 1005.2
20260503214518 69 262 0.0 7.0 0.00 0.00 0.00 23 1005.4
20260503213019 69 242 0.9 11.3 0.00 0.00 0.00 22 1005.5
20260503211517 69 291 0.0 9.6 0.00 0.00 0.00 25 1005.5
20260503210017 69 278 0.0 8.7 0.00 0.00 0.00 24 1005.7
20260503204520 69 271 0.0 9.6 0.00 0.00 0.00 23 1005.8
20260503203016 69 311 1.7 9.6 0.00 0.00 0.00 21 1005.8
20260503201516 69 311 0.0 3.5 0.00 0.00 0.00 26 1005.9
20260503200018 70 343 0.0 5.2 0.00 0.00 0.00 24 1006.0
20260503194512 69 275 0.0 7.8 0.00 0.00 0.00 25 1006.1
20260503193026 69 11 0.0 7.0 0.00 0.00 0.00 26 1006.2
20260503191508 69 338 0.0 5.2 0.00 0.00 0.00 28 1006.3
20260503190009 68 281 1.7 10.4 0.00 0.00 0.00 26 1006.4
20260503184506 68 293 0.9 14.8 0.00 0.00 0.00 30 1006.4
20260503183004 68 305 0.0 10.4 0.00 0.00 0.00 31 1006.5
20260503181503 68 337 0.0 7.0 0.00 0.00 0.00 34 1006.7
20260503180000 67 351 0.0 6.1 0.00 0.00 0.00 34 1006.7
20260503174559 67 317 0.0 8.7 0.00 0.00 0.00 35 1006.9
20260503173100 66 18 0.0 7.0 0.00 0.00 0.00 37 1007.0
20260503171558 66 307 0.0 12.2 0.00 0.00 0.00 36 1007.0
20260503081559 56 195 0.0 0.0 0.00 0.00 0.00 57 1006.0
20260503080105 57 205 0.0 0.0 0.00 0.00 0.00 55 1006.2
20260503071559 56 205 0.0 0.0 0.00 0.00 0.00 53 1006.7
20260503070109 56 159 0.0 0.0 0.00 0.00 0.00 52 1007.1